Time,TemperatureF,DewpointF,PressureIn,WindDirection,WindDirectionDegrees,WindSpeedMPH,WindSpeedGustMPH,Humidity,HourlyPrecipIn,Conditions,Clouds,dailyrainin,SoftwareType,DateUTC
2013-04-12 00:02:00,27.0,24.0,30.25,SW,223,2.0,-999.0,90,-99.99,,,-99.99,,2013-04-12 06:02:00,
2013-04-12 00:12:00,27.0,24.0,30.25,SW,223,2.0,-999.0,90,-99.99,,,-99.99,,2013-04-12 06:12:00,
2013-04-12 00:22:00,27.0,24.0,30.26,NW,306,2.0,-999.0,90,-99.99,,,-99.99,,2013-04-12 06:22:00,
2013-04-12 00:32:00,27.0,24.0,30.25,SW,219,5.0,-999.0,90,-99.99,,,-99.99,,2013-04-12 06:32:00,
2013-04-12 00:42:00,27.0,24.0,30.25,SW,219,5.0,-999.0,90,-99.99,,,-99.99,,2013-04-12 06:42:00,
2013-04-12 00:52:00,27.0,24.0,30.25,SW,225,6.0,-999.0,90,-99.99,,,-99.99,,2013-04-12 06:52:00,
2013-04-12 01:01:00,27.0,24.0,30.25,WSW,238,3.0,-999.0,89,-99.99,,,-99.99,,2013-04-12 07:01:00,
2013-04-12 01:11:00,27.0,24.0,30.25,WSW,238,3.0,-999.0,89,-99.99,,,-99.99,,2013-04-12 07:11:00,
2013-04-12 01:22:00,27.0,24.0,30.26,SW,233,2.0,-999.0,88,-99.99,,,-99.99,,2013-04-12 07:22:00,
2013-04-12 01:32:00,27.0,24.0,30.27,SW,225,3.0,-999.0,88,-99.99,,,-99.99,,2013-04-12 07:32:00,
2013-04-12 01:42:00,27.0,24.0,30.27,SW,225,3.0,-999.0,88,-99.99,,,-99.99,,2013-04-12 07:42:00,
2013-04-12 01:52:00,27.0,24.0,30.27,SW,227,3.0,-999.0,87,-99.99,,,-99.99,,2013-04-12 07:52:00,
2013-04-12 02:02:00,27.0,24.0,30.27,SW,227,4.0,-999.0,87,-99.99,,,-99.99,,2013-04-12 08:02:00,
2013-04-12 02:11:00,27.0,24.0,30.27,SW,227,4.0,-999.0,87,-99.99,,,-99.99,,2013-04-12 08:11:00,
2013-04-12 02:22:00,26.0,22.0,30.27,WSW,239,5.0,-999.0,86,-99.99,,,-99.99,,2013-04-12 08:22:00,
2013-04-12 02:32:00,26.0,22.0,30.27,SW,219,2.0,-999.0,85,-99.99,,,-99.99,,2013-04-12 08:32:00,
2013-04-12 02:42:00,26.0,22.0,30.27,SW,219,2.0,-999.0,85,-99.99,,,-99.99,,2013-04-12 08:42:00,
2013-04-12 02:52:00,26.0,22.0,30.26,SW,219,2.0,-999.0,86,-99.99,,,-99.99,,2013-04-12 08:52:00,
2013-04-12 03:02:00,25.0,22.0,30.27,SW,219,1.0,-999.0,87,-99.99,,,-99.99,,2013-04-12 09:02:00,
2013-04-12 03:11:00,25.0,22.0,30.27,SW,219,1.0,-999.0,87,-99.99,,,-99.99,,2013-04-12 09:11:00,
2013-04-12 03:22:00,24.0,21.0,30.26,SW,219,1.0,-999.0,88,-99.99,,,-99.99,,2013-04-12 09:22:00,
2013-04-12 03:32:00,24.0,21.0,30.26,WSW,242,1.0,-999.0,88,-99.99,,,-99.99,,2013-04-12 09:32:00,
2013-04-12 03:42:00,24.0,21.0,30.26,WSW,242,1.0,-999.0,88,-99.99,,,-99.99,,2013-04-12 09:42:00,
2013-04-12 03:52:00,24.0,21.0,30.26,SW,224,0.0,-999.0,89,-99.99,,,-99.99,,2013-04-12 09:52:00,
2013-04-12 04:02:00,24.0,21.0,30.26,SW,224,0.0,-999.0,89,-99.99,,,-99.99,,2013-04-12 10:02:00,
2013-04-12 04:12:00,24.0,21.0,30.26,SW,224,0.0,-999.0,89,-99.99,,,-99.99,,2013-04-12 10:12:00,
2013-04-12 04:22:00,23.0,20.0,30.27,SW,224,0.0,-999.0,89,-99.99,,,-99.99,,2013-04-12 10:22:00,
2013-04-12 04:33:00,22.0,19.0,30.27,SW,224,0.0,-999.0,88,-99.99,,,-99.99,,2013-04-12 10:33:00,
2013-04-12 04:42:00,22.0,19.0,30.27,SW,224,0.0,-999.0,88,-99.99,,,-99.99,,2013-04-12 10:42:00,
2013-04-12 04:52:00,21.0,18.0,30.27,SW,224,0.0,-999.0,88,-99.99,,,-99.99,,2013-04-12 10:52:00,
2013-04-12 05:02:00,21.0,18.0,30.27,SW,224,0.0,-999.0,88,-99.99,,,-99.99,,2013-04-12 11:02:00,
2013-04-12 05:12:00,21.0,18.0,30.27,SW,224,0.0,-999.0,88,-99.99,,,-99.99,,2013-04-12 11:12:00,
2013-04-12 05:22:00,20.0,17.0,30.27,SW,224,0.0,-999.0,87,-99.99,,,-99.99,,2013-04-12 11:22:00,
2013-04-12 05:32:00,19.0,16.0,30.27,SW,224,0.0,-999.0,87,-99.99,,,-99.99,,2013-04-12 11:32:00,
2013-04-12 05:42:00,19.0,16.0,30.27,SW,224,0.0,-999.0,87,-99.99,,,-99.99,,2013-04-12 11:42:00,
2013-04-12 05:52:00,18.0,15.0,30.27,SW,224,0.0,-999.0,88,-99.99,,,-99.99,,2013-04-12 11:52:00,
2013-04-12 06:02:00,17.0,14.0,30.27,SW,224,0.0,-999.0,87,-99.99,,,-99.99,,2013-04-12 12:02:00,
2013-04-12 06:12:00,17.0,14.0,30.27,SW,224,0.0,-999.0,87,-99.99,,,-99.99,,2013-04-12 12:12:00,
2013-04-12 06:22:00,17.0,14.0,30.27,SW,224,0.0,-999.0,88,-99.99,,,-99.99,,2013-04-12 12:22:00,
2013-04-12 06:32:00,16.0,13.0,30.27,SW,224,0.0,-999.0,88,-99.99,,,-99.99,,2013-04-12 12:32:00,
2013-04-12 06:42:00,16.0,13.0,30.27,SW,224,0.0,-999.0,88,-99.99,,,-99.99,,2013-04-12 12:42:00,
2013-04-12 06:52:00,16.0,13.0,30.27,SW,224,0.0,-999.0,89,-99.99,,,-99.99,,2013-04-12 12:52:00,
2013-04-12 07:02:00,16.0,14.0,30.28,SW,224,0.0,-999.0,90,-99.99,,,-99.99,,2013-04-12 13:02:00,
2013-04-12 07:11:00,16.0,14.0,30.28,SW,224,0.0,-999.0,90,-99.99,,,-99.99,,2013-04-12 13:11:00,
2013-04-12 07:21:00,16.0,14.0,30.27,SW,224,0.0,-999.0,91,-99.99,,,-99.99,,2013-04-12 13:21:00,
2013-04-12 07:32:00,16.0,14.0,30.28,SSE,151,0.0,-999.0,90,-99.99,,,-99.99,,2013-04-12 13:32:00,
2013-04-12 07:42:00,16.0,14.0,30.28,SSE,151,0.0,-999.0,90,-99.99,,,-99.99,,2013-04-12 13:42:00,
2013-04-12 07:52:00,17.0,15.0,30.27,SSE,151,0.0,-999.0,91,-99.99,,,-99.99,,2013-04-12 13:52:00,
2013-04-12 08:02:00,18.0,16.0,30.27,SSE,151,0.0,-999.0,92,-99.99,,,-99.99,,2013-04-12 14:02:00,
2013-04-12 08:12:00,18.0,16.0,30.27,SSE,151,0.0,-999.0,92,-99.99,,,-99.99,,2013-04-12 14:12:00,
2013-04-12 08:22:00,19.0,17.0,30.27,SSE,151,0.0,-999.0,93,-99.99,,,-99.99,,2013-04-12 14:22:00,
2013-04-12 08:32:00,21.0,19.0,30.26,SSE,151,0.0,-999.0,93,-99.99,,,-99.99,,2013-04-12 14:32:00,
2013-04-12 08:42:00,21.0,19.0,30.26,SSE,151,0.0,-999.0,93,-99.99,,,-99.99,,2013-04-12 14:42:00,
2013-04-12 08:52:00,23.0,21.0,30.25,SSE,151,0.0,-999.0,93,-99.99,,,-99.99,,2013-04-12 14:52:00,
2013-04-12 09:02:00,25.0,23.0,30.26,SSE,151,0.0,-999.0,92,-99.99,,,-99.99,,2013-04-12 15:02:00,
2013-04-12 09:12:00,25.0,23.0,30.26,SSE,151,0.0,-999.0,92,-99.99,,,-99.99,,2013-04-12 15:12:00,
2013-04-12 09:22:00,27.0,24.0,30.25,SSW,206,0.0,-999.0,89,-99.99,,,-99.99,,2013-04-12 15:22:00,
2013-04-12 09:33:00,28.0,23.0,30.25,SE,140,0.0,-999.0,82,-99.99,,,-99.99,,2013-04-12 15:33:00,
2013-04-12 09:43:00,28.0,23.0,30.25,SE,140,0.0,-999.0,82,-99.99,,,-99.99,,2013-04-12 15:43:00,
2013-04-12 10:03:00,28.0,23.0,30.23,SE,140,0.0,-999.0,80,-99.99,,,-99.99,,2013-04-12 16:03:00,
2013-04-12 10:12:00,28.0,23.0,30.23,SE,140,0.0,-999.0,80,-99.99,,,-99.99,,2013-04-12 16:12:00,
2013-04-12 10:22:00,29.0,23.0,30.22,East,86,1.0,-999.0,79,-99.99,,,-99.99,,2013-04-12 16:22:00,
2013-04-12 10:33:00,29.0,22.0,30.21,SE,125,2.0,-999.0,75,-99.99,,,-99.99,,2013-04-12 16:33:00,
2013-04-12 10:42:00,29.0,22.0,30.21,SE,125,2.0,-999.0,75,-99.99,,,-99.99,,2013-04-12 16:42:00,
2013-04-12 10:52:00,30.0,23.0,30.21,East,99,2.0,-999.0,74,-99.99,,,-99.99,,2013-04-12 16:52:00,
2013-04-12 11:02:00,30.0,23.0,30.18,SSW,211,2.0,-999.0,74,-99.99,,,-99.99,,2013-04-12 17:02:00,
2013-04-12 11:12:00,30.0,23.0,30.18,SSW,211,2.0,-999.0,74,-99.99,,,-99.99,,2013-04-12 17:12:00,
2013-04-12 11:22:00,30.0,23.0,30.18,SSE,163,2.0,-999.0,75,-99.99,,,-99.99,,2013-04-12 17:22:00,
2013-04-12 11:32:00,31.0,23.0,30.17,SSW,209,3.0,-999.0,73,-99.99,,,-99.99,,2013-04-12 17:32:00,
2013-04-12 11:43:00,31.0,23.0,30.17,SSW,209,3.0,-999.0,73,-99.99,,,-99.99,,2013-04-12 17:43:00,
2013-04-12 11:54:00,31.0,23.0,30.17,SW,233,3.0,-999.0,71,-99.99,,,-99.99,,2013-04-12 17:54:00,
2013-04-12 12:06:00,32.0,24.0,30.16,South,184,3.0,-999.0,72,-99.99,,,-99.99,,2013-04-12 18:06:00,
2013-04-12 12:13:00,32.0,24.0,30.16,South,184,3.0,-999.0,72,-99.99,,,-99.99,,2013-04-12 18:13:00,
2013-04-12 12:25:00,32.0,23.0,30.15,ENE,78,4.0,-999.0,70,-99.99,,,-99.99,,2013-04-12 18:25:00,
2013-04-12 13:32:00,33.0,25.0,30.10,SSE,151,3.0,-999.0,73,-99.99,,,-99.99,,2013-04-12 19:32:00,
2013-04-12 13:42:00,33.0,25.0,30.10,SSE,151,3.0,-999.0,73,-99.99,,,-99.99,,2013-04-12 19:42:00,
2013-04-12 13:52:00,33.0,26.0,30.09,SSE,157,3.0,-999.0,75,-99.99,,,-99.99,,2013-04-12 19:52:00,
2013-04-12 14:02:00,34.0,27.0,30.08,SSW,210,1.0,-999.0,75,-99.99,,,-99.99,,2013-04-12 20:02:00,
2013-04-12 14:11:00,34.0,27.0,30.08,SSW,210,1.0,-999.0,75,-99.99,,,-99.99,,2013-04-12 20:11:00,
2013-04-12 14:22:00,34.0,26.0,30.07,NNW,345,2.0,-999.0,73,-99.99,,,-99.99,,2013-04-12 20:22:00,
2013-04-12 14:32:00,34.0,27.0,30.05,ESE,107,2.0,-999.0,74,-99.99,,,-99.99,,2013-04-12 20:32:00,
2013-04-12 14:42:00,34.0,27.0,30.05,ESE,107,2.0,-999.0,74,-99.99,,,-99.99,,2013-04-12 20:42:00,
2013-04-12 14:52:00,34.0,27.0,30.04,South,173,3.0,-999.0,74,-99.99,,,-99.99,,2013-04-12 20:52:00,
2013-04-12 15:02:00,35.0,28.0,30.03,SE,132,2.0,-999.0,75,-99.99,,,-99.99,,2013-04-12 21:02:00,
2013-04-12 15:11:00,35.0,28.0,30.03,SE,132,2.0,-999.0,75,-99.99,,,-99.99,,2013-04-12 21:11:00,
2013-04-12 15:21:00,34.0,28.0,30.02,ESE,111,3.0,-999.0,77,-99.99,,,-99.99,,2013-04-12 21:21:00,
2013-04-12 15:32:00,35.0,29.0,30.01,SSE,162,2.0,-999.0,77,-99.99,,,-99.99,,2013-04-12 21:32:00,
2013-04-12 15:42:00,35.0,29.0,30.01,SSE,162,2.0,-999.0,77,-99.99,,,-99.99,,2013-04-12 21:42:00,
2013-04-12 15:52:00,35.0,28.0,29.99,WNW,286,1.0,-999.0,76,-99.99,,,-99.99,,2013-04-12 21:52:00,
2013-04-12 16:02:00,37.0,28.0,29.98,SW,234,3.0,-999.0,71,-99.99,,,-99.99,,2013-04-12 22:02:00,
2013-04-12 16:12:00,37.0,28.0,29.98,SW,234,3.0,-999.0,71,-99.99,,,-99.99,,2013-04-12 22:12:00,
2013-04-12 16:22:00,38.0,27.0,29.97,ENE,60,4.0,-999.0,65,-99.99,,,-99.99,,2013-04-12 22:22:00,
2013-04-12 16:32:00,38.0,27.0,29.96,ENE,78,4.0,-999.0,63,-99.99,,,-99.99,,2013-04-12 22:32:00,
2013-04-12 16:42:00,38.0,27.0,29.96,ENE,78,4.0,-999.0,63,-99.99,,,-99.99,,2013-04-12 22:42:00,
2013-04-12 16:52:00,38.0,27.0,29.94,ESE,123,3.0,-999.0,64,-99.99,,,-99.99,,2013-04-12 22:52:00,
2013-04-12 17:03:00,39.0,28.0,29.93,SSE,155,2.0,-999.0,64,-99.99,,,-99.99,,2013-04-12 23:03:00,
2013-04-12 17:12:00,39.0,28.0,29.93,SSE,155,2.0,-999.0,64,-99.99,,,-99.99,,2013-04-12 23:12:00,
2013-04-12 17:22:00,38.0,27.0,29.91,South,188,4.0,-999.0,64,-99.99,,,-99.99,,2013-04-12 23:22:00,
2013-04-12 17:32:00,38.0,27.0,29.91,ESE,107,1.0,-999.0,63,-99.99,,,-99.99,,2013-04-12 23:32:00,
2013-04-12 17:42:00,38.0,27.0,29.91,ESE,107,1.0,-999.0,63,-99.99,,,-99.99,,2013-04-12 23:42:00,
2013-04-12 17:52:00,38.0,28.0,29.90,SSE,155,2.0,-999.0,66,-99.99,,,-99.99,,2013-04-12 23:52:00,
2013-04-12 18:02:00,38.0,27.0,29.88,SSE,157,2.0,-999.0,65,-99.99,,,-99.99,,2013-04-13 00:02:00,
2013-04-12 18:12:00,38.0,27.0,29.88,SSE,157,2.0,-999.0,65,-99.99,,,-99.99,,2013-04-13 00:12:00,
2013-04-12 18:21:00,39.0,29.0,29.87,SSW,196,2.0,-999.0,66,-99.99,,,-99.99,,2013-04-13 00:21:00,
2013-04-12 18:32:00,38.0,28.0,29.86,ENE,77,2.0,-999.0,68,-99.99,,,-99.99,,2013-04-13 00:32:00,
2013-04-12 18:42:00,38.0,28.0,29.86,ENE,77,2.0,-999.0,68,-99.99,,,-99.99,,2013-04-13 00:42:00,
2013-04-12 18:52:00,38.0,28.0,29.85,ESE,107,2.0,-999.0,68,-99.99,,,-99.99,,2013-04-13 00:52:00,
2013-04-12 19:02:00,38.0,29.0,29.84,ESE,109,1.0,-999.0,69,-99.99,,,-99.99,,2013-04-13 01:02:00,
2013-04-12 19:12:00,38.0,29.0,29.84,ESE,109,1.0,-999.0,69,-99.99,,,-99.99,,2013-04-13 01:12:00,
2013-04-12 19:22:00,38.0,29.0,29.83,ESE,116,1.0,-999.0,70,-99.99,,,-99.99,,2013-04-13 01:22:00,
2013-04-12 19:32:00,37.0,28.0,29.82,SE,145,0.0,-999.0,71,-99.99,,,-99.99,,2013-04-13 01:32:00,
2013-04-12 19:42:00,37.0,28.0,29.82,SE,145,0.0,-999.0,71,-99.99,,,-99.99,,2013-04-13 01:42:00,
2013-04-12 19:52:00,37.0,28.0,29.81,East,87,0.0,-999.0,71,-99.99,,,-99.99,,2013-04-13 01:52:00,
2013-04-12 20:02:00,37.0,29.0,29.80,SE,142,0.0,-999.0,73,-99.99,,,-99.99,,2013-04-13 02:02:00,
2013-04-12 20:11:00,37.0,29.0,29.80,SE,142,0.0,-999.0,73,-99.99,,,-99.99,,2013-04-13 02:11:00,
2013-04-12 20:22:00,36.0,30.0,29.79,SE,142,0.0,-999.0,79,-99.99,,,-99.99,,2013-04-13 02:22:00,
2013-04-12 20:32:00,34.0,30.0,29.79,SE,142,0.0,-999.0,86,-99.99,,,-99.99,,2013-04-13 02:32:00,
2013-04-12 20:42:00,34.0,30.0,29.79,SE,142,0.0,-999.0,86,-99.99,,,-99.99,,2013-04-13 02:42:00,
2013-04-12 20:52:00,33.0,30.0,29.78,SE,142,0.0,-999.0,89,-99.99,,,-99.99,,2013-04-13 02:52:00,
2013-04-12 21:02:00,33.0,30.0,29.76,SE,142,0.0,-999.0,90,-99.99,,,-99.99,,2013-04-13 03:02:00,
2013-04-12 21:11:00,33.0,30.0,29.76,SE,142,0.0,-999.0,90,-99.99,,,-99.99,,2013-04-13 03:11:00,
2013-04-12 21:22:00,32.0,30.0,29.76,SE,142,0.0,-999.0,91,-99.99,,,-99.99,,2013-04-13 03:22:00,
2013-04-12 21:33:00,32.0,30.0,29.76,SE,142,0.0,-999.0,91,-99.99,,,-99.99,,2013-04-13 03:33:00,
2013-04-12 21:42:00,32.0,30.0,29.76,SE,142,0.0,-999.0,91,-99.99,,,-99.99,,2013-04-13 03:42:00,
2013-04-12 21:52:00,31.0,29.0,29.75,SE,142,0.0,-999.0,91,-99.99,,,-99.99,,2013-04-13 03:52:00,
2013-04-12 22:02:00,31.0,29.0,29.74,SE,142,0.0,-999.0,91,-99.99,,,-99.99,,2013-04-13 04:02:00,
2013-04-12 22:12:00,31.0,29.0,29.74,SE,142,0.0,-999.0,91,-99.99,,,-99.99,,2013-04-13 04:12:00,
2013-04-12 22:22:00,30.0,28.0,29.74,SE,142,0.0,-999.0,92,-99.99,,,-99.99,,2013-04-13 04:22:00,
2013-04-12 22:33:00,30.0,28.0,29.73,SE,142,0.0,-999.0,92,-99.99,,,-99.99,,2013-04-13 04:33:00,
2013-04-12 22:42:00,30.0,28.0,29.73,SE,142,0.0,-999.0,92,-99.99,,,-99.99,,2013-04-13 04:42:00,
2013-04-12 22:53:00,29.0,27.0,29.73,SE,142,0.0,-999.0,92,-99.99,,,-99.99,,2013-04-13 04:53:00,
2013-04-12 23:02:00,29.0,27.0,29.72,SE,142,0.0,-999.0,92,-99.99,,,-99.99,,2013-04-13 05:02:00,
2013-04-12 23:12:00,29.0,27.0,29.72,SE,142,0.0,-999.0,92,-99.99,,,-99.99,,2013-04-13 05:12:00,
2013-04-12 23:22:00,28.0,26.0,29.72,SE,142,0.0,-999.0,92,-99.99,,,-99.99,,2013-04-13 05:22:00,
2013-04-12 23:32:00,28.0,26.0,29.71,SE,142,0.0,-999.0,92,-99.99,,,-99.99,,2013-04-13 05:32:00,
2013-04-12 23:42:00,28.0,26.0,29.71,SE,142,0.0,-999.0,92,-99.99,,,-99.99,,2013-04-13 05:42:00,
2013-04-12 23:52:00,28.0,26.0,29.70,SE,142,0.0,-999.0,92,-99.99,,,-99.99,,2013-04-13 05:52:00,